GW3738 Weather Reports


time (UTC)temp
C
wind
direction
speed
KPH
gust
KPH
rain 1hr
cm
rain 24hr
cm
rain mn
cm
humidity
%
barometer
mb
20260504035318 15 207 0.0 0.0 0.00 0.00 0.00 43 1003.8
20260504034815 15 199 0.0 0.0 0.00 0.00 0.00 43 1003.8
20260504034313 15 197 0.0 0.0 0.00 0.00 0.00 43 1003.8
20260504033809 15 196 0.0 0.0 0.00 0.00 0.00 42 1003.8
20260504033307 15 200 0.0 1.6 0.00 0.00 0.00 42 1003.7
20260504032804 15 199 0.0 1.6 0.00 0.00 0.00 43 1003.8
20260504032301 15 220 0.0 1.6 0.00 0.00 0.00 43 1003.9
20260504031757 15 218 0.0 1.6 0.00 0.00 0.00 43 1003.9
20260504031255 15 207 0.0 0.0 0.00 0.00 0.00 42 1003.9
20260504030751 16 209 0.0 0.0 0.00 0.00 0.00 43 1003.9
20260504030248 16 214 0.0 0.0 0.00 0.00 0.00 41 1003.7
20260504025744 16 229 0.0 0.0 0.00 0.00 0.00 42 1003.8
20260504025241 16 213 0.0 0.0 0.00 0.00 0.00 42 1003.9
20260504024738 15 214 0.0 0.0 0.00 0.00 0.00 42 1003.7
20260504024235 16 213 0.0 0.0 0.00 0.00 0.00 42 1003.7
20260504023732 16 214 0.0 0.0 0.00 0.00 0.00 42 1003.8
20260504023228 16 210 0.0 0.0 0.00 0.00 0.00 43 1003.8
20260504022724 16 206 0.0 0.0 0.00 0.00 0.00 42 1003.6
20260504022220 16 229 0.0 0.0 0.00 0.00 0.00 42 1003.6
20260504021718 16 229 0.0 0.0 0.00 0.00 0.00 42 1003.6
20260504021215 16 229 0.0 0.0 0.00 0.00 0.00 42 1003.6
20260504020712 16 221 0.0 0.0 0.00 0.00 0.00 43 1003.6
20260504020208 16 213 0.0 0.0 0.00 0.00 0.00 43 1003.4
20260504015705 16 213 0.0 0.0 0.00 0.00 0.00 43 1003.3
20260504015201 16 212 0.0 0.0 0.00 0.00 0.00 44 1003.3
20260504014656 16 210 0.0 0.0 0.00 0.00 0.00 44 1003.5
20260504014154 16 210 0.0 0.0 0.00 0.00 0.00 44 1003.4
20260504013652 17 203 0.0 0.0 0.00 0.00 0.00 43 1003.3
20260504013148 17 250 0.0 1.6 0.00 0.00 0.00 44 1003.3
20260504012645 17 174 0.0 1.6 0.00 0.00 0.00 43 1003.1
20260504012143 17 206 0.0 1.6 0.00 0.00 0.00 43 1003.4
20260504011640 17 200 0.0 0.0 0.00 0.00 0.00 43 1003.2
20260504011136 18 214 0.0 0.0 0.00 0.00 0.00 42 1003.0
20260504010632 18 210 0.0 0.0 0.00 0.00 0.00 42 1003.1
20260504010128 18 211 0.0 1.6 0.00 0.00 0.00 42 1003.0
20260504005625 18 196 0.0 0.0 0.00 0.00 0.00 42 1003.1
20260504005122 18 244 1.6 1.6 0.00 0.00 0.00 42 1003.1
20260504004620 18 190 0.0 0.0 0.00 0.00 0.00 42 1002.8
20260504004117 18 189 0.0 0.0 0.00 0.00 0.00 41 1002.8
20260504003613 18 189 0.0 0.0 0.00 0.00 0.00 40 1002.9
20260504003110 19 181 0.0 0.0 0.00 0.00 0.00 40 1002.8
20260504002607 19 187 0.0 0.0 0.00 0.00 0.00 41 1002.6
20260504002104 19 102 1.6 3.2 0.00 0.00 0.00 39 1002.6
20260504001602 19 201 1.6 1.6 0.00 0.00 0.00 39 1002.8
20260504001057 20 193 0.0 0.0 0.00 0.00 0.00 39 1002.6
20260504000555 20 169 0.0 0.0 0.00 0.00 0.00 38 1002.8
20260504000053 20 177 0.0 0.0 0.00 0.00 0.00 37 1002.8
20260503235551 20 191 0.0 0.0 0.00 0.00 0.00 37 1002.9
20260503235047 20 137 0.0 1.6 0.00 0.00 0.00 35 1002.5
20260503234545 20 171 1.6 1.6 0.00 0.00 0.00 36 1002.5
20260503234043 20 194 0.0 0.0 0.00 0.00 0.00 38 1002.4
20260503233539 20 138 0.0 1.6 0.00 0.00 0.00 38 1002.5
20260503233035 20 322 3.2 3.2 0.00 0.00 0.00 37 1002.5
20260503232532 21 242 1.6 3.2 0.00 0.00 0.00 36 1002.5
20260503232030 21 255 3.2 3.2 0.00 0.00 0.00 38 1002.6
20260503231528 21 73 1.6 4.8 0.00 0.00 0.00 36 1002.6
20260503231024 21 196 3.2 3.2 0.00 0.00 0.00 35 1002.6
20260503230521 21 228 1.6 1.6 0.00 0.00 0.00 36 1002.6
20260503230018 22 346 1.6 3.2 0.00 0.00 0.00 37 1002.7
20260503225515 21 205 0.0 0.0 0.00 0.00 0.00 37 1002.7
20260503225010 22 202 6.4 14.5 0.00 0.00 0.00 34 1002.7
20260503224508 22 136 6.4 9.7 0.00 0.00 0.00 36 1002.6
20260503224005 22 225 4.8 6.4 0.00 0.00 0.00 35 1002.8
20260503223503 22 87 4.8 6.4 0.00 0.00 0.00 35 1002.8
20260503222958 22 140 1.6 1.6 0.00 0.00 0.00 38 1002.9
20260503222457 22 181 4.8 4.8 0.00 0.00 0.00 35 1002.8
20260503221955 22 178 0.0 0.0 0.00 0.00 0.00 36 1002.9
20260503221453 22 92 0.0 1.6 0.00 0.00 0.00 36 1002.7
20260503220949 22 58 3.2 4.8 0.00 0.00 0.00 33 1002.8
20260503220446 22 252 3.2 3.2 0.00 0.00 0.00 36 1002.7
20260503215943 22 241 3.2 4.8 0.00 0.00 0.00 34 1002.8
20260503215440 22 190 1.6 1.6 0.00 0.00 0.00 37 1003.0
20260503214937 22 235 3.2 3.2 0.00 0.00 0.00 36 1002.8
20260503214435 22 217 6.4 11.3 0.00 0.00 0.00 36 1003.0
20260503213932 22 192 1.6 1.6 0.00 0.00 0.00 38 1002.9
20260503213430 22 206 3.2 4.8 0.00 0.00 0.00 36 1002.9
20260503212926 22 15 1.6 3.2 0.00 0.00 0.00 37 1003.1
20260503212424 22 167 1.6 1.6 0.00 0.00 0.00 38 1003.2
20260503211921 21 149 1.6 1.6 0.00 0.00 0.00 37 1003.1
20260503211418 21 236 3.2 4.8 0.00 0.00 0.00 38 1003.1
20260503210913 21 191 3.2 3.2 0.00 0.00 0.00 38 1003.3
20260503210410 21 290 9.7 11.3 0.00 0.00 0.00 37 1002.9
20260503205904 21 183 4.8 6.4 0.00 0.00 0.00 39 1003.3
20260503205401 21 251 4.8 4.8 0.00 0.00 0.00 38 1003.3
20260503204858 21 244 3.2 4.8 0.00 0.00 0.00 38 1003.2
20260503204355 21 221 4.8 6.4 0.00 0.00 0.00 38 1003.4
20260503203852 21 65 1.6 3.2 0.00 0.00 0.00 38 1003.5
20260503203349 22 208 4.8 6.4 0.00 0.00 0.00 36 1003.5
20260503202846 20 11 8.0 9.7 0.00 0.00 0.00 38 1003.7
20260503202345 21 215 8.0 11.3 0.00 0.00 0.00 39 1003.7
20260503201843 21 228 6.4 11.3 0.00 0.00 0.00 40 1003.6
20260503201339 21 242 3.2 3.2 0.00 0.00 0.00 40 1003.7
20260503200837 21 286 3.2 4.8 0.00 0.00 0.00 39 1003.7
20260503200332 20 7 3.2 4.8 0.00 0.00 0.00 40 1004.1
20260503195830 20 311 11.3 12.9 0.00 0.00 0.00 40 1003.7
20260503195326 19 256 11.3 12.9 0.00 0.00 0.00 42 1004.1
20260503194824 20 221 4.8 4.8 0.00 0.00 0.00 41 1004.2
20260503194319 20 219 9.7 12.9 0.00 0.00 0.00 41 1004.3
20260503193816 20 258 3.2 4.8 0.00 0.00 0.00 43 1004.4
20260503193312 20 242 4.8 4.8 0.00 0.00 0.00 40 1004.4
20260503192808 19 243 4.8 4.8 0.00 0.00 0.00 41 1004.7
20260503192305 19 286 9.7 14.5 0.00 0.00 0.00 44 1004.4
20260503191800 18 169 4.8 11.3 0.00 0.00 0.00 46 1004.5
20260503191257 18 200 1.6 4.8 0.00 0.00 0.00 44 1004.6
20260503190754 18 249 11.3 16.1 0.00 0.00 0.00 43 1004.7
20260503190250 18 128 1.6 3.2 0.00 0.00 0.00 44 1004.9
20260503185748 19 268 6.4 14.5 0.00 0.00 0.00 44 1004.7
20260503185243 18 118 8.0 9.7 0.00 0.00 0.00 44 1004.7
20260503184738 18 169 3.2 6.4 0.00 0.00 0.00 46 1004.9
20260503184235 19 122 14.5 16.1 0.00 0.00 0.00 42 1005.0
20260503183731 18 247 8.0 11.3 0.00 0.00 0.00 43 1004.9
20260503183229 18 270 14.5 20.9 0.00 0.00 0.00 43 1005.2
20260503182726 18 225 6.4 9.7 0.00 0.00 0.00 43 1004.9
20260503182225 18 229 4.8 6.4 0.00 0.00 0.00 44 1005.0
20260503181721 18 135 3.2 4.8 0.00 0.00 0.00 44 1005.0
20260503181218 18 198 6.4 14.5 0.00 0.00 0.00 45 1004.8
20260503180714 18 204 4.8 6.4 0.00 0.00 0.00 43 1005.0
20260503180213 18 237 4.8 6.4 0.00 0.00 0.00 44 1005.2
20260503175710 18 113 1.6 3.2 0.00 0.00 0.00 46 1005.1
20260503175208 17 174 1.6 4.8 0.00 0.00 0.00 45 1005.1
20260503174703 17 299 12.9 17.7 0.00 0.00 0.00 43 1005.1
20260503174201 17 334 8.0 14.5 0.00 0.00 0.00 44 1005.5
20260503173656 17 186 6.4 12.9 0.00 0.00 0.00 42 1005.3
20260503173152 17 243 12.9 16.1 0.00 0.00 0.00 44 1005.5
20260503172649 17 157 6.4 9.7 0.00 0.00 0.00 44 1005.5
20260503172147 16 182 1.6 1.6 0.00 0.00 0.00 45 1005.8
20260503171643 17 199 3.2 6.4 0.00 0.00 0.00 45 1005.8
20260503171140 17 221 12.9 16.1 0.00 0.00 0.00 44 1005.8
20260503170637 17 170 3.2 4.8 0.00 0.00 0.00 45 1005.9
20260503170134 17 155 8.0 9.7 0.00 0.00 0.00 45 1005.9
20260503150525 13 186 11.3 16.1 0.00 0.00 0.00 61 1007.5
20260503131419 11 101 1.6 4.8 0.00 0.00 0.00 68 1008.4
20260503130915 11 213 4.8 9.7 0.00 0.00 0.00 66 1008.5
20260503130413 11 222 6.4 9.7 0.00 0.00 0.00 68 1008.6
20260503110812 9 232 3.2 3.2 0.00 0.00 0.00 57 1009.3
20260503110309 9 194 0.0 1.6 0.00 0.00 0.00 56 1009.3
20260503100235 10 114 0.0 1.6 0.00 0.00 0.00 53 1009.4
20260503090159 10 203 0.0 1.6 0.00 0.00 0.00 50 1010.0
20260503081635 9 173 4.8 6.4 0.00 0.00 0.00 50 1010.3
20260503081132 9 209 1.6 3.2 0.00 0.00 0.00 53 1010.5
20260503080628 9 189 0.0 1.6 0.00 0.00 0.00 51 1010.4
20260503080125 9 210 1.6 1.6 0.00 0.00 0.00 51 1010.3
20260503072602 8 190 0.0 1.6 0.00 0.00 0.00 51 1010.6
20260503072059 8 136 1.6 1.6 0.00 0.00 0.00 52 1010.6
20260503071556 8 196 0.0 1.6 0.00 0.00 0.00 51 1010.6
20260503071053 8 143 1.6 3.2 0.00 0.00 0.00 52 1010.6
20260503070549 8 115 1.6 1.6 0.00 0.00 0.00 51 1010.6
20260503055009 8 149 0.0 0.0 0.00 0.00 0.00 49 1011.4
20260503054505 9 200 0.0 0.0 0.00 0.00 0.00 48 1011.5
20260503054003 9 193 1.6 3.2 0.00 0.00 0.00 49 1011.3
20260503053500 9 202 1.6 1.6 0.00 0.00 0.00 48 1011.4
20260503052957 9 179 1.6 1.6 0.00 0.00 0.00 48 1011.4
20260503052454 10 129 1.6 3.2 0.00 0.00 0.00 48 1011.3
20260503051950 10 224 1.6 1.6 0.00 0.00 0.00 47 1011.2
20260503051446 9 4 1.6 3.2 0.00 0.00 0.00 47 1011.5
20260503050944 10 101 0.0 0.0 0.00 0.00 0.00 47 1011.5
20260503050439 10 149 3.2 4.8 0.00 0.00 0.00 46 1011.6
20260503045937 10 187 4.8 6.4 0.00 0.00 0.00 46 1011.4
20260503045435 10 226 3.2 3.2 0.00 0.00 0.00 46 1011.5
20260503044931 10 193 0.0 1.6 0.00 0.00 0.00 46 1011.6
20260503044428 10 167 3.2 4.8 0.00 0.00 0.00 45 1011.6
20260503043926 10 134 3.2 3.2 0.00 0.00 0.00 45 1011.7
20260503043422 10 161 1.6 3.2 0.00 0.00 0.00 44 1011.7
20260503042918 10 168 4.8 6.4 0.00 0.00 0.00 44 1011.8
20260503042415 10 170 0.0 0.0 0.00 0.00 0.00 44 1011.8
20260503041912 10 173 1.6 3.2 0.00 0.00 0.00 44 1011.9
20260503041409 10 140 0.0 1.6 0.00 0.00 0.00 44 1012.0
20260503040906 10 159 0.0 0.0 0.00 0.00 0.00 44 1012.0
20260503040404 9 141 4.8 4.8 0.00 0.00 0.00 43 1012.1
20260503035900 10 121 0.0 0.0 0.00 0.00 0.00 45 1012.1